Martinsburg, WV

6:20 AM EDT on October 17, 2017 (GMT -0400)
Eastern W Va Regional-Shepherd

Weather History for KMRB - September, 2014

Change the Weather History Date:

Friday, September 26, 2014

  Actual Average Record
Temperature  
Mean Temperature 65 °F 61 °F  
Max Temperature 77 °F 73 °F 93 °F (1933)
Min Temperature 52 °F 50 °F 33 °F (1927)
Degree Days  
Heating Degree Days 0 5  
Month to date heating degree days 48 62  
Since 1 July heating degree days 51 69  
Cooling Degree Days 0 1  
Month to date cooling degree days 123 89  
Year to date cooling degree days 951 881  
Growing Degree Days 16 (Base 50)    
Moisture  
Dew Point 54 °F    
Average Humidity 67    
Maximum Humidity 93    
Minimum Humidity 40    
Precipitation  
Precipitation 0.00 in 0.12 in 1.94 in (2002)
Month to date precipitation 2.24 3.09  
Year to date precipitation 26.71 29.33  
Sea Level Pressure  
Sea Level Pressure 30.26 in    
Wind  
Wind Speed 3 mph (NNE)    
Max Wind Speed 14 mph    
Max Gust Speed 18 mph    
Visibility 5 miles    
Events Fog , Rain    
T = Trace of Precipitation, MM = Missing Value Source: NWS Daily Summary

Daily Weather History Graph

Daily Weather History Graph

Search for Another Location

Airport or City:

Trip Planner

Search our weather history database for the weather conditions in past years. The results will help you decide how hot, cold, wet, or windy it might be!

Date:

Astronomy

Sep. 26, 2014 Rise Set
Actual Time 7:03 AM EDT 7:02 PM EDT
Civil Twilight 6:36 AM EDT 7:29 PM EDT
Nautical Twilight 6:05 AM EDT 8:00 PM EDT
Astronomical Twilight 5:33 AM EDT 8:31 PM EDT
Moon 9:16 AM EDT (9/26) 8:22 PM EDT (9/26)
Length of Visible Light 12h 52m
Length of Day
11h 59m
Waxing Crescent, 6% of the Moon is Illuminated
Sep 26
Waxing Crescent
Oct 1
First Quarter
Oct 8
Full
Oct 15
Last Quarter
Oct 23
New

Hourly Weather History & Observations

Time (EDT) Temp. Dew Point Humidity Pressure Visibility Wind Dir Wind Speed Gust Speed Precip Events Conditions
12:53 AM 64.9 °F 57.9 °F 78% 30.26 in 10.0 mi Calm Calm - N/A   Overcast
1:53 AM 62.1 °F 57.9 °F 86% 30.27 in 10.0 mi Calm Calm - N/A   Overcast
2:51 AM 57.2 °F 55.4 °F 94% 30.27 in 1.8 mi Calm Calm - N/A   Scattered Clouds
2:53 AM 57.9 °F 55.0 °F 90% 30.27 in 1.2 mi Calm Calm - N/A   Scattered Clouds
3:02 AM 60.1 °F 55.9 °F 86% 30.27 in 3.0 mi East 3.5 mph - N/A   Partly Cloudy
3:09 AM 59.0 °F 55.9 °F 90% 30.27 in 1.2 mi Calm Calm - N/A   Mostly Cloudy
3:17 AM 59.0 °F 55.9 °F 90% 30.27 in 0.8 mi Calm Calm - N/A   Mostly Cloudy
3:19 AM 59.0 °F 55.0 °F 87% 30.37 in 6.0 mi North 9.2 mph - 0.01 in Rain Light Rain
3:21 AM 59.0 °F 55.9 °F 90% 30.27 in 2.5 mi Calm Calm - N/A   Scattered Clouds
3:24 AM 59.0 °F 55.9 °F 90% 30.27 in 7.0 mi Calm Calm - N/A   Scattered Clouds
3:38 AM 59.0 °F 55.0 °F 87% 30.27 in 1.5 mi Calm Calm - N/A   Mostly Cloudy
3:40 AM 59.0 °F 55.0 °F 87% 30.27 in 0.8 mi Calm Calm - N/A   Mostly Cloudy
3:53 AM 59.0 °F 55.9 °F 90% 30.26 in 1.5 mi Calm Calm - N/A   Scattered Clouds
3:57 AM 57.0 °F 55.0 °F 93% 30.26 in 0.8 mi Calm Calm - N/A   Mist
4:06 AM 57.0 °F 55.0 °F 93% 30.26 in 1.2 mi Calm Calm - N/A   Partly Cloudy
4:19 AM 57.9 °F 54.0 °F 87% 30.26 in 0.5 mi Calm Calm - N/A Fog Fog
4:30 AM 57.0 °F 55.0 °F 93% 30.26 in 0.2 mi Calm Calm - N/A Fog Fog
4:53 AM 55.9 °F 53.1 °F 90% 30.26 in 0.2 mi Calm Calm - N/A Fog Fog
5:45 AM 54.0 °F 52.0 °F 93% 30.27 in 0.2 mi SW 3.5 mph - N/A Fog Fog
5:53 AM 55.0 °F 52.0 °F 89% 30.27 in 0.2 mi Calm Calm - N/A Fog Fog
6:41 AM 55.0 °F 53.1 °F 93% 30.27 in 0.2 mi Calm Calm - N/A Fog Fog
6:53 AM 55.0 °F 53.1 °F 93% 30.27 in 0.2 mi Calm Calm - N/A Fog Fog
7:28 AM 57.0 °F 54.0 °F 89% 30.28 in 0.2 mi Calm Calm - N/A Fog Fog
7:53 AM 57.9 °F 55.0 °F 90% 30.28 in 0.2 mi Calm Calm - N/A Fog Fog
8:45 AM 60.1 °F 57.0 °F 90% 30.29 in 0.5 mi Calm Calm - N/A Fog Fog
8:53 AM 59.0 °F 57.0 °F 93% 30.28 in 0.2 mi Calm Calm - N/A Fog Fog
9:51 AM 60.8 °F 57.2 °F 88% 30.30 in 1.0 mi Calm Calm - N/A   Mist
9:52 AM 60.1 °F 57.0 °F 90% 30.30 in 1.0 mi Calm Calm - N/A   Overcast
10:00 AM 61.0 °F 57.0 °F 87% 30.30 in 3.0 mi NE 3.5 mph - N/A   Mostly Cloudy
10:23 AM 64.9 °F 57.0 °F 75% 30.30 in 10.0 mi Variable 4.6 mph - N/A   Partly Cloudy
10:53 AM 69.1 °F 55.9 °F 63% 30.29 in 10.0 mi North 6.9 mph - N/A   Clear
11:53 AM 71.1 °F 52.0 °F 51% 30.27 in 10.0 mi North 11.5 mph 17.3 mph N/A   Clear
12:53 PM 73.0 °F 52.0 °F 48% 30.26 in 10.0 mi NE 9.2 mph - N/A   Clear
1:53 PM 75.0 °F 51.1 °F 43% 30.25 in 10.0 mi NNE 9.2 mph - N/A   Clear
2:53 PM 75.9 °F 50.0 °F 40% 30.22 in 10.0 mi North 6.9 mph - N/A   Clear
3:53 PM 77.0 °F 51.1 °F 40% 30.21 in 10.0 mi NNE 6.9 mph - N/A   Clear
4:53 PM 77.0 °F 52.0 °F 42% 30.20 in 10.0 mi NNE 5.8 mph - N/A   Clear
5:53 PM 75.0 °F 51.1 °F 43% 30.20 in 10.0 mi NE 8.1 mph - N/A   Clear
6:53 PM 70.0 °F 52.0 °F 53% 30.21 in 10.0 mi NE 4.6 mph - N/A   Clear
7:53 PM 64.9 °F 53.1 °F 65% 30.22 in 10.0 mi ENE 3.5 mph - N/A   Clear
8:53 PM 62.1 °F 53.1 °F 72% 30.24 in 10.0 mi Calm Calm - N/A   Clear
9:53 PM 59.0 °F 53.1 °F 81% 30.24 in 10.0 mi Calm Calm - N/A   Clear
10:53 PM 55.9 °F 52.0 °F 87% 30.25 in 10.0 mi Calm Calm - N/A   Clear
11:53 PM 55.0 °F 51.1 °F 86% 30.24 in 8.0 mi Calm Calm - N/A   Clear